Location: Neuvy Saint Sepulchre
(46.5953°N, 1.8122°E)
Time: 10:09:19
(UTC+02:00)

ISS - Pass Details

Date: 22 March 2024
Orbit: 413 x 419 km, 51.6° (Epoch: 13 April)

Event Time Altitude Azimuth Distance (km) Brightness Sun altitude
Rises 21:23:06 0° 293° (WNW) 2,368 1.5 -22.9°
Reaches altitude 10° 21:25:17 10° 301° (WNW) 1,505 0.2 -23.2°
Enters shadow 21:27:49 36° 340° (NNW) 689 -2.3 -23.6°
